Location: Le Petit-Vavre
(46.5081°N, 1.5239°E)
Time: 15:24:04
(UTC+00:00)

CZ-2C R/B - Pass Details

Date: 03 March 2021
Orbit: 783 x 871 km, 98.2° (Epoch: 15 April)

Event Time Altitude Azimuth Distance (km) Brightness Sun altitude
Rises 19:41:15 0° 9° (N) 3,435 5.9 -21.0°
Reaches altitude 10° 19:43:43 10° 4° (N) 2,484 5.2 -21.4°
Maximum altitude 19:49:01 51° 291° (WNW) 1,048 3.5 -22.3°
Drops below altitude 10° 19:54:10 10° 217° (SW) 2,412 5.3 -23.2°
Sets 19:56:32 0° 212° (SSW) 3,327 6.0 -23.6°
